Hourly Weather Roundup
Issued by NWS Central Illinois

Home | Current Version | Previous Version | Text Only | Print | Product List | Glossary On
Versions: 1 2 3 4 5 6 7 8 9 10 11 12 13 14 15 16 17 18 19 20 21 22 23 24 25 26 27 28 29 30 31 32 33 34 35 36 37 38 39 40 41 42 43 44 45 46 47 48 49 50
000
NZUS43 KILX 150910
HWRILX

AREA WEATHER ROUNDUP
NATIONAL WEATHER SERVICE, LINCOLN IL
300 AM CST SUN JAN 15 2017


CITY           SKY/WX    TMP DP  RH WIND       PRES   REMARKS
BLOOMINGTON    CLOUDY    27  24  89 N6        30.44S WCI  20
CHAMPAIGN      CLOUDY    30  26  85 NE5       30.44S FOG     WCI  25
DANVILLE       CLOUDY    28  27  96 N3        30.42R FOG
DECATUR        CLOUDY    30  30 100 NE3       30.44S FOG
EFFINGHAM      CLOUDY    32  32  99 CALM      30.44F FOG
FLORA          CLOUDY    34  32  91 N6        30.43S FOG     WCI  29
GALESBURG      CLOUDY    26  22  87 N3        30.44F
JACKSONVILLE   CLOUDY    29  27  93 N5        30.45F FOG     WCI  24
LACON          CLOUDY    26  22  86 CALM      30.46R
LAWRENCEVILLE  CLOUDY    34  33  96 NE10      30.42F FOG     WCI  26
LITCHFIELD     CLOUDY    30  29  96 N5        30.43S FOG     WCI  25
$$


CITY           SKY/WX    TMP DP  RH WIND       PRES   REMARKS
LINCOLN        CLOUDY    31  29  92 CALM      30.46R
MACOMB         CLOUDY    27  26  94 CALM      30.48S FOG
MATTOON        CLOUDY    31  28  89 N7        30.42F FOG     WCI  24
MT CARMEL AP   CLOUDY    34  31  91 NE6       30.42F FOG     WCI  29
OLNEY-NOBLE AP CLOUDY    32  32 100 N5        30.43S FOG     WCI  27
PARIS          PTCLDY    30  29  98 CALM      30.45S FOG
PEORIA         CLOUDY    28  23  81 CALM      30.46R
PONTIAC        CLOUDY    28  27  96 N5        30.45S WCI  22
RANTOUL        MOCLDY    30  28  92 N3        30.44S FOG
SPRINGFIELD    CLOUDY    31  28  89 NW3       30.46R FOG
TAYLORVILLE    CLOUDY    30  29  95 N5        30.45S FOG     WCI  25
$$

...REGIONAL REPORTS...


CITY           SKY/WX    TMP DP  RH WIND       PRES   REMARKS
CHICAGO O`HARE CLOUDY    22  18  85 W3        30.45S
KANKAKEE       CLOUDY    26  24  91 CALM      30.45F
MOLINE         PTCLDY    21  17  84 CALM      30.45F
MOUNT STERLING CLOUDY    27  25  94 N3        30.44S FOG
MOUNT VERNON   CLOUDY    34  32  92 NE6       30.41F FOG     WCI  29
PITTSFIELD     CLOUDY    30  28  92 CALM      30.46S FOG
QUINCY         CLOUDY    28  27  96 NE3       30.43F FOG
ROCKFORD       CLOUDY    17  12  80 CALM      30.46F
$$


CITY           SKY/WX    TMP DP  RH WIND       PRES   REMARKS
BURLINGTON     CLOUDY    28  22  78 N5        30.44S WCI  23
CEDAR RAPIDS   CLOUDY    20  15  81 CALM      30.43S
DES MOINES     CLOUDY    26  16  65 CALM      30.43R
KIRKSVILLE     CLOUDY    26  23  88 CALM      30.42S FOG
OTTUMWA        CLOUDY    26  19  74 N3        30.42S
ST LOUIS       LGT RAIN  33  30  88 VRB3      30.43R FOG
$$


CITY           SKY/WX    TMP DP  RH WIND       PRES   REMARKS
TERRE HAUTE    CLOUDY    32  29  88 N3        30.44F FOG
EVANSVILLE     CLOUDY    36  32  85 N6        30.42F WCI  31
INDIANAPOLIS   CLOUDY    30  27  88 NE5       30.43S WCI  25
LAFAYETTE      CLOUDY    25  24  96 CALM      30.45S FOG
MADISON        PTCLDY     8   5  87 CALM      30.43S
MILWAUKEE      PTCLDY    18  12  77 CALM      30.43S
$$






USA.gov is the U.S. government's official web portal to all federal, state and local government web resources and services.